Terug naar catalogus

ARIANE 1 DEB

ActiefHEO
NORAD 25823·DEBRIS·🇫🇷 France

Gelanceerd Mar 5, 1984 vanaf Guiana Space Centre

Loading…

Volgende Passages (komende 24 uur)

TLE

VersSource: Space-Track

Epoch: Sep 14, 2026, 12:37 UTC

1 25823U 84023E   26257.52590870 -.00000675  00000-0 -10908-1 0  9994
2 25823   8.0379  85.1842 6811766  67.9520  51.1879  2.62261714 23019

Volg ARIANE 1 DEB in realtime met AllMySat

Download on the App Store